Hourly Weather Roundup
Issued by NWS Central Illinois

Home | Current Version | Previous Version | Text Only | Print | Product List | Glossary On
Versions: 1 2 3 4 5 6 7 8 9 10 11 12 13 14 15 16 17 18 19 20 21 22 23 24 25 26 27 28 29 30 31 32 33 34 35 36 37 38 39 40 41 42 43 44 45 46 47 48 49 50
000
NZUS43 KILX 300010
HWRILX

AREA WEATHER ROUNDUP
NATIONAL WEATHER SERVICE, LINCOLN IL
700 PM CDT FRI MAY 29 2015


CITY           SKY/WX    TMP DP  RH WIND       PRES   REMARKS
BLOOMINGTON    RAIN      69  68  97 S10       29.99R
6HR MIN TEMP:  69; 6HR MAX TEMP:  84; 6HR PCP:  0.17;

CHAMPAIGN      PTSUNNY   82  65  56 S12       29.98R HX  84
6HR MIN TEMP:  82; 6HR MAX TEMP:  87;

DANVILLE       PTSUNNY   81  65  57 S9        29.95R HX  83
6HR MIN TEMP:  81; 6HR MAX TEMP:  87;

DECATUR        CLOUDY    72  63  73 NW8       29.99R
6HR MIN TEMP:  72; 6HR MAX TEMP:  84;

EFFINGHAM      LGT RAIN  70  66  87 SW6       30.02S
FLORA          RAIN      70  64  81 W15       30.03R
6HR MIN TEMP:  70; 6HR MAX TEMP:  86; 6HR PCP:  0.06;

GALESBURG      PTSUNNY   76  64  67 SW7       29.93R
JACKSONVILLE   CLOUDY    79  65  63 SW3       29.96R HX  81
6HR MIN TEMP:  78; 6HR MAX TEMP:  85;

LACON          CLOUDY    79  64  59 SW6       29.92R HX  80
6HR MIN TEMP:  78; 6HR MAX TEMP:  82;

LAWRENCEVILLE  NOT AVBL
LITCHFIELD     CLOUDY    72  68  88 SE7       29.98S
$$


CITY           SKY/WX    TMP DP  RH WIND       PRES   REMARKS
LINCOLN        CLOUDY    69  66  90 SE5       29.95S
6HR MIN TEMP:  69; 6HR MAX TEMP:  86;

MACOMB         PTSUNNY   76  64  66 SW9       29.96R
MATTOON        LGT RAIN  71  66  84 SW13      29.99S
6HR MIN TEMP:  71; 6HR MAX TEMP:  82; 6HR PCP:  0.01;

MT CARMEL AP   SUNNY     86  59  39 S10       29.99S HX  85
OLNEY-NOBLE AP PTSUNNY   73  64  73 W12       30.01R
PARIS          PTSUNNY   82  64  53 S9        29.99R HX  83
6HR MIN TEMP:  82; 6HR MAX TEMP:  86;

PEORIA         CLOUDY    81  66  60 SW8       29.94R HX  83
6HR MIN TEMP:  81; 6HR MAX TEMP:  85;

PONTIAC        PTSUNNY   78  70  75 SW14      29.95R HX  80
RANTOUL        PTSUNNY   83  65  55 SW16G23   29.97R HX  85
6HR MIN TEMP:  81; 6HR MAX TEMP:  87;

ROBINSON       SUNNY     83  64  52 S13       30.00S HX  84
6HR MIN TEMP:  83; 6HR MAX TEMP:  86;

SPRINGFIELD    PTSUNNY   73  69  87 S3        29.97R
6HR MIN TEMP:  70; 6HR MAX TEMP:  86; 6HR PCP:  0.42;

TAYLORVILLE    CLOUDY    73  66  78 S7        29.98S
$$

...REGIONAL REPORTS...


CITY           SKY/WX    TMP DP  RH WIND       PRES   REMARKS
CHICAGO O`HARE PTSUNNY   80  62  54 SW10      29.90R HX  81
KANKAKEE       TSTM      68  66  93 S17G31    29.96R
MOLINE         CLOUDY    75  63  66 W6        29.90R
MOUNT VERNON   CLOUDY    68  63  83 CALM      30.04R
PITTSFIELD     PTSUNNY   75  66  73 SW3       29.97R
QUINCY         CLOUDY    73  64  73 SW8       29.95R
ROCKFORD       CLOUDY    70  65  84 W7        29.93S
$$


CITY           SKY/WX    TMP DP  RH WIND       PRES   REMARKS
BURLINGTON     CLOUDY    75  66  73 SW7       29.92R
CEDAR RAPIDS   CLOUDY    73  63  70 SW13      29.90R
DES MOINES     CLOUDY    74  64  71 W14       29.88S
KIRKSVILLE     CLOUDY    71  67  87 S7        29.96R
OTTUMWA        CLOUDY    70  64  81 SW14      29.93R
ST LOUIS       PTSUNNY   79  69  71 S8        29.98R HX  81
$$


CITY           SKY/WX    TMP DP  RH WIND       PRES   REMARKS
TERRE HAUTE    MOSUNNY   81  65  58 S10G21    30.00R HX  83
EVANSVILLE     SUNNY     80  66  62 S5        30.01S HX  82
INDIANAPOLIS   MOSUNNY   80  63  55 S16       30.00S HX  81
LAFAYETTE      PTSUNNY   80  64  58 S12G20    29.97R HX  82
MADISON        CLOUDY    75  66  73 SW3       29.87S
MILWAUKEE      PTSUNNY   73  67  81 VRB7      29.88S HAZE
$$




USA.gov is the U.S. government's official web portal to all federal, state and local government web resources and services.